TimeEST,TemperatureF,Dew PointF,Humidity,Sea Level PressureIn,VisibilityMPH,Wind Direction,Wind SpeedMPH,Gust SpeedMPH,PrecipitationIn,Events,Conditions,WindDirDegrees,DateUTC
12:15 AM,32.0,30.2,93,30.31,5.0,Calm,Calm,-,N/A,,Overcast,0,2012-11-28 05:15:00
12:35 AM,32.0,30.2,93,30.31,4.0,Calm,Calm,-,N/A,,Mostly Cloudy,0,2012-11-28 05:35:00
12:55 AM,30.2,30.2,100,30.30,3.0,South,3.5,-,N/A,,Scattered Clouds,170,2012-11-28 05:55:00
1:15 AM,32.0,30.2,93,30.30,5.0,Calm,Calm,-,N/A,,Clear,0,2012-11-28 06:15:00
1:55 AM,28.4,28.4,100,30.31,2.0,Calm,Calm,-,N/A,,Clear,0,2012-11-28 06:55:00
2:15 AM,28.4,28.4,100,30.31,2.5,Calm,Calm,-,N/A,,Clear,0,2012-11-28 07:15:00
2:35 AM,28.4,28.4,100,30.32,3.0,Calm,Calm,-,N/A,,Clear,0,2012-11-28 07:35:00
2:55 AM,28.4,28.4,100,30.33,2.5,Calm,Calm,-,N/A,,Clear,0,2012-11-28 07:55:00
3:15 AM,28.4,26.6,93,30.34,1.8,Calm,Calm,-,N/A,,Mostly Cloudy,0,2012-11-28 08:15:00
3:35 AM,26.6,26.6,100,30.35,2.5,West,3.5,-,N/A,,Overcast,280,2012-11-28 08:35:00
3:55 AM,28.4,28.4,100,30.35,2.5,Calm,Calm,-,N/A,,Overcast,0,2012-11-28 08:55:00
4:15 AM,30.2,28.4,93,30.35,4.0,Calm,Calm,-,N/A,,Overcast,0,2012-11-28 09:15:00
4:35 AM,30.2,28.4,93,30.35,3.0,Calm,Calm,-,N/A,,Overcast,0,2012-11-28 09:35:00
4:55 AM,30.2,28.4,93,30.35,3.0,Calm,Calm,-,N/A,,Overcast,0,2012-11-28 09:55:00
5:15 AM,30.2,28.4,93,30.35,3.0,South,3.5,-,N/A,,Overcast,180,2012-11-28 10:15:00
5:35 AM,30.2,30.2,100,30.35,4.0,South,3.5,-,N/A,,Overcast,190,2012-11-28 10:35:00
5:55 AM,30.2,30.2,100,30.36,5.0,SSW,3.5,-,N/A,,Overcast,210,2012-11-28 10:55:00
6:15 AM,32.0,30.2,93,30.36,5.0,SSW,4.6,-,N/A,,Overcast,210,2012-11-28 11:15:00
6:35 AM,32.0,30.2,93,30.36,5.0,SSW,5.8,-,N/A,,Overcast,210,2012-11-28 11:35:00
6:55 AM,32.0,30.2,93,30.37,5.0,SSW,4.6,-,N/A,,Mostly Cloudy,200,2012-11-28 11:55:00
7:15 AM,30.2,28.4,93,30.37,4.0,SSW,6.9,-,N/A,,Scattered Clouds,200,2012-11-28 12:15:00
7:35 AM,30.2,28.4,93,30.38,5.0,SSW,4.6,-,N/A,,Clear,200,2012-11-28 12:35:00
7:55 AM,30.2,28.4,93,30.38,3.0,SSW,5.8,-,N/A,,Clear,200,2012-11-28 12:55:00
8:15 AM,30.2,28.4,93,30.40,3.0,SSW,4.6,-,N/A,,Clear,210,2012-11-28 13:15:00
8:35 AM,30.2,28.4,93,30.41,4.0,SSW,5.8,-,N/A,,Clear,210,2012-11-28 13:35:00
8:55 AM,32.0,30.2,93,30.42,4.0,SW,4.6,-,N/A,,Clear,220,2012-11-28 13:55:00
9:35 AM,32.0,30.2,93,30.43,7.0,WSW,8.1,-,N/A,,Clear,240,2012-11-28 14:35:00
9:55 AM,33.8,30.2,87,30.44,7.0,WSW,6.9,-,N/A,,Clear,240,2012-11-28 14:55:00
10:15 AM,33.8,30.2,87,30.44,10.0,West,4.6,-,N/A,,Scattered Clouds,260,2012-11-28 15:15:00
10:35 AM,35.6,30.2,81,30.44,10.0,West,5.8,-,N/A,,Clear,270,2012-11-28 15:35:00
11:15 AM,37.4,28.4,70,30.45,10.0,West,4.6,-,N/A,,Clear,260,2012-11-28 16:15:00
11:35 AM,39.2,30.2,70,30.44,10.0,WSW,5.8,-,N/A,,Scattered Clouds,250,2012-11-28 16:35:00
11:55 AM,39.2,28.4,65,30.44,10.0,West,8.1,-,N/A,,Scattered Clouds,260,2012-11-28 16:55:00
12:15 PM,39.2,28.4,65,30.43,10.0,WNW,4.6,-,N/A,,Clear,290,2012-11-28 17:15:00
12:35 PM,39.2,26.6,61,30.42,10.0,WNW,3.5,-,N/A,,Clear,300,2012-11-28 17:35:00
12:55 PM,41.0,28.4,61,30.41,10.0,WSW,4.6,-,N/A,,Clear,250,2012-11-28 17:55:00
1:15 PM,41.0,26.6,57,30.41,10.0,WSW,5.8,-,N/A,,Clear,240,2012-11-28 18:15:00
1:35 PM,41.0,28.4,61,30.40,10.0,West,6.9,-,N/A,,Clear,260,2012-11-28 18:35:00
1:55 PM,41.0,26.6,57,30.40,10.0,West,6.9,-,N/A,,Clear,280,2012-11-28 18:55:00
2:15 PM,41.0,24.8,53,30.39,10.0,WSW,8.1,-,N/A,,Clear,250,2012-11-28 19:15:00
2:35 PM,41.0,24.8,53,30.38,10.0,West,4.6,-,N/A,,Clear,270,2012-11-28 19:35:00
2:55 PM,41.0,26.6,57,30.38,10.0,West,6.9,-,N/A,,Clear,280,2012-11-28 19:55:00
3:15 PM,41.0,26.6,57,30.37,10.0,West,5.8,-,N/A,,Clear,280,2012-11-28 20:15:00
3:35 PM,42.8,26.6,53,30.37,10.0,WSW,6.9,-,N/A,,Clear,250,2012-11-28 20:35:00
3:55 PM,42.8,26.6,53,30.37,10.0,WNW,5.8,-,N/A,,Clear,300,2012-11-28 20:55:00
4:15 PM,41.0,26.6,57,30.37,10.0,West,4.6,-,N/A,,Clear,260,2012-11-28 21:15:00
4:35 PM,41.0,26.6,57,30.37,10.0,WNW,5.8,-,N/A,,Clear,300,2012-11-28 21:35:00
5:15 PM,39.2,26.6,61,30.38,10.0,WNW,3.5,-,N/A,,Clear,300,2012-11-28 22:15:00
5:35 PM,39.2,26.6,61,30.38,10.0,West,3.5,-,N/A,,Clear,270,2012-11-28 22:35:00
5:55 PM,37.4,26.6,65,30.39,10.0,West,4.6,-,N/A,,Clear,280,2012-11-28 22:55:00
6:15 PM,37.4,26.6,65,30.40,10.0,West,4.6,-,N/A,,Clear,280,2012-11-28 23:15:00
6:35 PM,35.6,26.6,70,30.40,10.0,West,4.6,-,N/A,,Clear,280,2012-11-28 23:35:00
6:55 PM,37.4,24.8,60,30.40,10.0,West,3.5,-,N/A,,Clear,280,2012-11-28 23:55:00
7:15 PM,37.4,24.8,60,30.40,10.0,West,4.6,-,N/A,,Clear,280,2012-11-29 00:15:00
7:35 PM,37.4,24.8,60,30.40,10.0,Calm,Calm,-,N/A,,Clear,0,2012-11-29 00:35:00
7:55 PM,35.6,24.8,65,30.40,10.0,Calm,Calm,-,N/A,,Clear,0,2012-11-29 00:55:00
8:15 PM,33.8,26.6,75,30.40,10.0,Calm,Calm,-,N/A,,Clear,0,2012-11-29 01:15:00
8:35 PM,33.8,26.6,75,30.40,10.0,SSW,3.5,-,N/A,,Clear,210,2012-11-29 01:35:00
8:55 PM,33.8,26.6,75,30.40,10.0,Calm,Calm,-,N/A,,Clear,0,2012-11-29 01:55:00
9:15 PM,32.0,26.6,80,30.41,10.0,SSE,4.6,-,N/A,,Clear,160,2012-11-29 02:15:00
9:55 PM,30.2,26.6,86,30.41,10.0,SE,3.5,-,N/A,,Clear,130,2012-11-29 02:55:00
10:15 PM,30.2,26.6,86,30.41,10.0,SSE,4.6,-,N/A,,Clear,150,2012-11-29 03:15:00
10:35 PM,32.0,26.6,80,30.40,10.0,SSE,5.8,-,N/A,,Clear,160,2012-11-29 03:35:00
10:55 PM,30.2,24.8,80,30.41,10.0,SSE,3.5,-,N/A,,Clear,160,2012-11-29 03:55:00
11:15 PM,28.4,26.6,93,30.41,7.0,SSE,3.5,-,N/A,,Clear,150,2012-11-29 04:15:00
11:35 PM,28.4,26.6,93,30.40,10.0,SSE,4.6,-,N/A,,Clear,150,2012-11-29 04:35:00
11:55 PM,26.6,24.8,93,30.39,7.0,SE,4.6,-,N/A,,Clear,140,2012-11-29 04:55:00